Regional Weather Roundup
Issued by NWS Northern Indiana

Home | Current Version | Previous Version | Text Only | Print | Product List | Glossary On
Versions: 1 2 3 4 5 6 7 8 9 10 11 12 13 14 15 16 17 18 19 20 21 22 23 24 25 26 27 28 29 30 31 32 33 34 35 36 37 38 39 40 41 42 43 44 45 46 47 48 49 50
000
ASUS43 KIWX 032010
RWRIWX

KIWX WEATHER ROUNDUP
NATIONAL WEATHER SERVICE NORTHERN INDIANA
400 PM EDT THU SEP 03 2015

NOTE: "FAIR" INDICATES FEW OR NO CLOUDS BELOW 12,000 FEET WITH NO
SIGNIFICANT WEATHER AND/OR OBSTRUCTIONS TO VISIBILITY.

* THESE STATIONS ARE NOT UNDER NWS QUALITY CONTROL. THEY ALSO MAY NOT
  REPORT WEATHER SUCH AS PRECIPITATION OR FOG.

INZ001>027-032100-
NORTHERN INDIANA

CITY           SKY/WX    TMP DP  RH WIND       PRES   REMARKS
GARY*          PTSUNNY   91  63  38 SW12      29.91F
VALPARAISO     MOSUNNY   89  70  53 SW15G21   29.93F
MICHIGAN CITY* MOSUNNY   88  70  55 W9        29.92
LAPORTE*       SUNNY     91  70  50 W12       29.93F HX  96
KNOX*          MOSUNNY   88  64  45 W12       29.92F
SOUTH BEND     MOSUNNY   90  67  46 W15       29.92F
GOSHEN         MOSUNNY   89  67  47 SW16      29.92F
MONTICELLO*    MOSUNNY   88  70  54 SW9       29.93F
LOGANSPORT*    MOSUNNY   90  54  29 W9        29.95F
ROCHESTER*     MOSUNNY   93  63  36 W10G17    29.94F
WARSAW*        SUNNY     90  68  48 W10       29.93F
ANGOLA*        SUNNY     88  72  58 W7        29.94F
FORT WAYNE     MOSUNNY   89  67  47 W15G21    29.95F
HUNTINGTON*    PTSUNNY   89  61  38 W10G18    29.94F
PERU/GRISSOM   MOSUNNY   91  66  44 W15       29.94F
MARION*        MOSUNNY   87  53  31 SW12G17   29.96F

$$
INZ028>050-032100-
CENTRAL INDIANA

CITY           SKY/WX    TMP DP  RH WIND       PRES   REMARKS
LAFAYETTE      MOSUNNY   89  65  44 W10G17    29.94F
KOKOMO*        MOSUNNY   90  66  45 W8G21     29.95F
MUNCIE*        SUNNY     87  66  49 W9G17     29.96F
INDIANAPOLIS   MOSUNNY   88  64  44 SW8       29.96F

$$
MIZ043>046-050>051-056>058-064>065-071>073-077>080-032100-
SOUTHWEST LOWER MICHIGAN

CITY           SKY/WX    TMP DP  RH WIND       PRES   REMARKS
BATTLE CREEK   PTSUNNY   87  69  54 SW17G24   29.90F
BENTON HARBOR  SUNNY     87  69  54 SW16      29.90F
COLDWATER*     MOSUNNY   89  65  44 SW12G18   29.92F
HILLSDALE*     MOSUNNY   88  67  49 SW10G16   29.94F
HOLLAND        MOSUNNY   80  71  74 W10       29.91F
GRAND RAPIDS   PTSUNNY   82  74  76 W14       29.89F
KALAMAZOO      MOSUNNY   87  68  52 W14       29.90F
STURGIS*       PTSUNNY   84  68  58 W10       29.92F
THREE RIVERS*  FAIR      88  69  53 SW8       29.92F

$$
OHZ001>008-015>018-024>025-032100-
NORTHWEST OHIO

CITY           SKY/WX    TMP DP  RH WIND       PRES   REMARKS
WAUSEON*       FAIR      88  68  51 W9G17     29.93S
DEFIANCE       SUNNY     91  65  41 SW8G20    29.93F
FINDLAY        MOSUNNY   89  66  46 W8        29.93F
TOLEDO EXPRESS MOSUNNY   90  65  43 W13       29.91F
TOLEDO METCALF PTSUNNY   89  67  47 SW10      29.92F
LIMA           SUNNY     89  66  46 W13       29.96F

$$
AND FOR LAKE MICHIGAN COASTAL AND OPEN LAKE BUOY OBSERVATIONS

STATION/POSITION TEMP    WIND        PRES    VSBY  WAVE
                 AIR SEA DIR/SP/G                  HT/PER
                 (F)     (DEG/KT/KT) (MB)    (MI)  (FT/S)
CALUMET HARBOR    89     260/  5/  9   N/A
MICHIGAN CITY     81     230/  4/  4   N/A
BURNS HARBOR      86     270/ 11/ 14 1013.5F
SAINT JOSEPH      81     180/  9/ 11 1013.5F
SOUTH LAKE BUOY   75 73  250/  2/  2 1011.8F         1
4 MI NW BRIDGMAN  77 74  260/  6/  6   N/A           1/ 3
MICHIGAN CITY     83 76  260/  4/  4   N/A           1

$$
&&



USA.gov is the U.S. government's official web portal to all federal, state and local government web resources and services.